| time (UTC) | temp C | wind direction | speed KPH | gust KPH | rain 1hr cm | rain 24hr cm | rain mn cm | humidity % | barometer mb |
| 20260506224636 | 12 | 270 | 0.0 | 0.0 | 0.00 | 0.00 | 0.00 | 85 | 1009.8 |
| 20260506223636 | 12 | 293 | 0.0 | 0.0 | 0.00 | 0.00 | 0.00 | 85 | 1009.8 |
| 20260506222635 | 12 | 270 | 0.0 | 0.0 | 0.00 | 0.00 | 0.00 | 84 | 1009.8 |
| 20260506221634 | 12 | 270 | 0.0 | 0.0 | 0.00 | 0.00 | 0.00 | 84 | 1009.8 |
| 20260506220633 | 12 | 270 | 0.0 | 0.0 | 0.00 | 0.00 | 0.00 | 83 | 1009.8 |
| 20260506215601 | 13 | 270 | 0.0 | 0.0 | 0.00 | 0.00 | 0.00 | 83 | 1009.8 |
| 20260506214601 | 13 | 113 | 0.0 | 0.0 | 0.00 | 0.00 | 0.00 | 82 | 1009.8 |
| 20260506213600 | 13 | 90 | 0.0 | 0.0 | 0.00 | 0.00 | 0.00 | 82 | 1009.8 |
| 20260506212559 | 13 | 135 | 0.0 | 0.0 | 0.00 | 0.00 | 0.00 | 81 | 1009.5 |
| 20260506211558 | 13 | 68 | 0.0 | 0.0 | 0.00 | 0.00 | 0.00 | 80 | 1009.5 |
| 20260506210557 | 13 | 225 | 0.0 | 0.0 | 0.00 | 0.00 | 0.00 | 80 | 1009.5 |
| 20260506205525 | 14 | 225 | 0.0 | 0.0 | 0.00 | 0.00 | 0.00 | 79 | 1009.5 |
| 20260506204525 | 14 | 158 | 0.0 | 0.0 | 0.00 | 0.00 | 0.00 | 79 | 1009.5 |
| 20260506203524 | 14 | 270 | 0.0 | 0.0 | 0.00 | 0.00 | 0.00 | 78 | 1009.1 |
| 20260506202523 | 14 | 293 | 0.0 | 0.0 | 0.00 | 0.00 | 0.00 | 77 | 1009.1 |
| 20260506201450 | 15 | 293 | 0.0 | 0.0 | 0.00 | 0.00 | 0.00 | 76 | 1008.8 |
| 20260506200449 | 15 | 293 | 0.0 | 0.0 | 0.00 | 0.00 | 0.00 | 75 | 1008.8 |
| 20260506195417 | 15 | 293 | 0.0 | 0.0 | 0.00 | 0.00 | 0.00 | 73 | 1008.5 |
| 20260506194417 | 16 | 68 | 0.0 | 0.0 | 0.00 | 0.00 | 0.00 | 72 | 1008.5 |
| 20260506193416 | 16 | 270 | 0.0 | 0.0 | 0.00 | 0.00 | 0.00 | 69 | 1008.1 |
| 20260506192415 | 16 | 248 | 0.0 | 0.0 | 0.00 | 0.00 | 0.00 | 68 | 1008.1 |
| 20260506191343 | 16 | 248 | 0.0 | 0.0 | 0.00 | 0.00 | 0.00 | 68 | 1007.8 |
| 20260506190342 | 17 | 248 | 0.0 | 0.0 | 0.00 | 0.00 | 0.00 | 68 | 1007.8 |
| 20260506185341 | 17 | 248 | 0.0 | 0.0 | 0.00 | 0.00 | 0.00 | 65 | 1007.8 |
| 20260506184340 | 18 | 203 | 0.0 | 0.0 | 0.00 | 0.00 | 0.00 | 63 | 1007.5 |
| 20260506183339 | 18 | 225 | 0.0 | 0.0 | 0.00 | 0.00 | 0.00 | 61 | 1007.5 |
| 20260506182338 | 18 | 270 | 0.0 | 0.0 | 0.00 | 0.00 | 0.00 | 61 | 1007.5 |
| 20260506181337 | 18 | 158 | 0.0 | 3.2 | 0.00 | 0.00 | 0.00 | 60 | 1007.1 |
| 20260506180336 | 19 | 173 | 3.2 | 20.9 | 0.00 | 0.00 | 0.00 | 59 | 1007.1 |
| 20260506175335 | 19 | 180 | 0.0 | 17.7 | 0.00 | 0.00 | 0.00 | 59 | 1007.1 |
| 20260506174335 | 19 | 180 | 9.7 | 12.9 | 0.00 | 0.00 | 0.00 | 58 | 1006.8 |
| 20260506173334 | 19 | 241 | 8.0 | 8.0 | 0.00 | 0.00 | 0.00 | 57 | 1006.8 |
| 20260506172333 | 20 | 248 | 3.2 | 14.5 | 0.00 | 0.00 | 0.00 | 58 | 1006.8 |
| 20260506171300 | 20 | 270 | 1.6 | 6.4 | 0.00 | 0.00 | 0.00 | 58 | 1006.8 |
| 20260506170259 | 20 | 270 | 4.8 | 6.4 | 0.00 | 0.00 | 0.00 | 59 | 1006.8 |
| 20260506165258 | 20 | 248 | 0.0 | 4.8 | 0.00 | 0.00 | 0.00 | 60 | 1006.8 |
| 20260506164226 | 20 | 270 | 4.8 | 11.3 | 0.00 | 0.00 | 0.00 | 60 | 1006.4 |
| 20260506163225 | 20 | 203 | 6.4 | 9.7 | 0.00 | 0.00 | 0.00 | 60 | 1006.4 |
| 20260506162224 | 21 | 162 | 8.0 | 9.7 | 0.00 | 0.00 | 0.00 | 59 | 1006.4 |
| 20260506161223 | 21 | 135 | 4.8 | 9.7 | 0.00 | 0.00 | 0.00 | 59 | 1006.8 |
| 20260506160143 | 21 | 180 | 9.7 | 9.7 | 0.00 | 0.00 | 0.00 | 59 | 1006.4 |
| 20260506155112 | 21 | 239 | 4.8 | 9.7 | 0.00 | 0.00 | 0.00 | 59 | 1006.4 |
| 20260506154111 | 21 | 158 | 9.7 | 9.7 | 0.00 | 0.00 | 0.00 | 61 | 1006.4 |
| 20260506153039 | 21 | 248 | 4.8 | 12.9 | 0.00 | 0.00 | 0.00 | 60 | 1006.4 |
| 20260506152038 | 21 | 248 | 6.4 | 6.4 | 0.00 | 0.00 | 0.00 | 62 | 1006.4 |
| 20260506151037 | 21 | 135 | 3.2 | 11.3 | 0.00 | 0.00 | 0.00 | 63 | 1006.4 |
| 20260506145934 | 21 | 162 | 3.2 | 11.3 | 0.00 | 0.00 | 0.00 | 64 | 1006.8 |
| 20260506144933 | 21 | 216 | 6.4 | 9.7 | 0.00 | 0.00 | 0.00 | 63 | 1006.8 |
| 20260506143932 | 21 | 100 | 4.8 | 17.7 | 0.00 | 0.00 | 0.00 | 62 | 1006.8 |
| 20260506142931 | 21 | 180 | 20.9 | 22.5 | 0.00 | 0.00 | 0.00 | 61 | 1006.8 |
| 20260506141859 | 21 | 278 | 6.4 | 6.4 | 0.00 | 0.00 | 0.00 | 60 | 1006.8 |
| 20260506140858 | 22 | 270 | 4.8 | 4.8 | 0.00 | 0.00 | 0.00 | 58 | 1006.8 |
| 20260506135858 | 22 | 170 | 3.2 | 16.1 | 0.00 | 0.00 | 0.00 | 58 | 1006.8 |
| 20260506134857 | 22 | 211 | 14.5 | 16.1 | 0.00 | 0.00 | 0.00 | 57 | 1006.8 |
| 20260506133856 | 22 | 113 | 1.6 | 11.3 | 0.00 | 0.00 | 0.00 | 54 | 1006.8 |
| 20260506132824 | 22 | 225 | 11.3 | 11.3 | 0.00 | 0.00 | 0.00 | 56 | 1006.8 |
| 20260506131752 | 22 | 135 | 0.0 | 25.7 | 0.00 | 0.00 | 0.00 | 57 | 1006.8 |
| 20260506130750 | 22 | 219 | 3.2 | 6.4 | 0.00 | 0.00 | 0.00 | 58 | 1006.8 |
| 20260506125750 | 22 | 182 | 8.0 | 11.3 | 0.00 | 0.00 | 0.00 | 58 | 1006.8 |
| 20260506124749 | 22 | 151 | 4.8 | 8.0 | 0.00 | 0.00 | 0.00 | 57 | 1007.1 |
| 20260506123717 | 21 | 266 | 3.2 | 14.5 | 0.00 | 0.00 | 0.00 | 59 | 1007.1 |
| 20260506122716 | 21 | 278 | 8.0 | 14.5 | 0.00 | 0.00 | 0.00 | 60 | 1007.1 |
| 20260506121644 | 21 | 248 | 0.0 | 12.9 | 0.00 | 0.00 | 0.00 | 61 | 1007.1 |
| 20260506120510 | 21 | 165 | 9.7 | 12.9 | 0.00 | 0.00 | 0.00 | 65 | 1007.1 |
| 20260506115509 | 20 | 203 | 4.8 | 12.9 | 0.00 | 0.00 | 0.00 | 65 | 1007.1 |
| 20260506114509 | 20 | 180 | 12.9 | 19.3 | 0.00 | 0.00 | 0.00 | 65 | 1007.1 |
| 20260506113508 | 21 | 159 | 16.1 | 17.7 | 0.00 | 0.00 | 0.00 | 64 | 1007.1 |
| 20260506112507 | 21 | 203 | 3.2 | 16.1 | 0.00 | 0.00 | 0.00 | 64 | 1007.1 |
| 20260506111507 | 21 | 225 | 9.7 | 17.7 | 0.00 | 0.00 | 0.00 | 63 | 1007.5 |
| 20260506110506 | 21 | 272 | 12.9 | 17.7 | 0.00 | 0.00 | 0.00 | 63 | 1007.5 |
| 20260506105505 | 20 | 189 | 16.1 | 17.7 | 0.00 | 0.00 | 0.00 | 66 | 1007.1 |
| 20260506104504 | 20 | 207 | 14.5 | 17.7 | 0.00 | 0.00 | 0.00 | 66 | 1007.5 |
| 20260506103503 | 20 | 184 | 9.7 | 11.3 | 0.00 | 0.00 | 0.00 | 69 | 1007.5 |
| 20260506102502 | 20 | 180 | 8.0 | 12.9 | 0.00 | 0.00 | 0.00 | 70 | 1007.5 |
| 20260506101501 | 20 | 238 | 11.3 | 12.9 | 0.00 | 0.00 | 0.00 | 69 | 1007.5 |
| 20260506100500 | 19 | 158 | 0.0 | 11.3 | 0.00 | 0.00 | 0.00 | 68 | 1007.8 |
| 20260506095459 | 19 | 211 | 16.1 | 19.3 | 0.00 | 0.00 | 0.00 | 68 | 1007.8 |
| 20260506094459 | 19 | 161 | 9.7 | 12.9 | 0.00 | 0.00 | 0.00 | 68 | 1007.8 |
| 20260506093457 | 20 | 98 | 3.2 | 9.7 | 0.00 | 0.00 | 0.00 | 68 | 1007.8 |
| 20260506092456 | 20 | 113 | 8.0 | 9.7 | 0.00 | 0.00 | 0.00 | 69 | 1007.8 |
| 20260506091455 | 20 | 270 | 3.2 | 11.3 | 0.00 | 0.00 | 0.00 | 69 | 1007.8 |
| 20260506090454 | 20 | 203 | 4.8 | 4.8 | 0.00 | 0.00 | 0.00 | 70 | 1007.8 |
| 20260506085454 | 19 | 113 | 1.6 | 1.6 | 0.00 | 0.00 | 0.00 | 72 | 1007.8 |
| 20260506084453 | 19 | 225 | 0.0 | 6.4 | 0.00 | 0.00 | 0.00 | 74 | 1007.8 |
| 20260506083421 | 18 | 119 | 3.2 | 6.4 | 0.00 | 0.00 | 0.00 | 75 | 1007.8 |
| 20260506082420 | 18 | 248 | 3.2 | 3.2 | 0.00 | 0.00 | 0.00 | 77 | 1007.8 |
| 20260506081419 | 17 | 158 | 0.0 | 9.7 | 0.00 | 0.00 | 0.00 | 77 | 1007.8 |
| 20260506080348 | 17 | 158 | 9.7 | 9.7 | 0.00 | 0.00 | 0.00 | 78 | 1007.8 |
| 20260506073314 | 17 | 203 | 3.2 | 3.2 | 0.00 | 0.00 | 0.00 | 84 | 1007.8 |
| 20260506072313 | 17 | 248 | 0.0 | 0.0 | 0.00 | 0.00 | 0.00 | 86 | 1007.5 |
| 20260506071313 | 16 | 225 | 0.0 | 3.2 | 0.00 | 0.00 | 0.00 | 88 | 1007.5 |
| 20260506070312 | 15 | 270 | 0.0 | 1.6 | 0.00 | 0.00 | 0.00 | 90 | 1007.5 |
| 20260506062308 | 13 | 270 | 4.8 | 4.8 | 0.00 | 0.00 | 0.00 | 92 | 1007.1 |
| 20260506061236 | 13 | 270 | 0.0 | 4.8 | 0.00 | 0.00 | 0.00 | 92 | 1006.8 |
| 20260506060235 | 12 | 248 | 0.0 | 0.0 | 0.00 | 0.00 | 0.00 | 92 | 1006.8 |
| 20260506051059 | 12 | 203 | 0.0 | 0.0 | 0.00 | 0.00 | 0.00 | 92 | 1007.5 |
| 20260506045058 | 12 | 45 | 0.0 | 0.0 | 0.00 | 0.00 | 0.00 | 92 | 1007.8 |
| 20260506044057 | 13 | 293 | 0.0 | 0.0 | 0.00 | 0.00 | 0.00 | 92 | 1007.8 |
| 20260506043056 | 13 | 293 | 0.0 | 4.8 | 0.00 | 0.00 | 0.00 | 92 | 1007.8 |
| 20260506042055 | 13 | 270 | 0.0 | 3.2 | 0.00 | 0.00 | 0.00 | 92 | 1007.8 |
| 20260506041054 | 12 | 248 | 0.0 | 0.0 | 0.00 | 0.00 | 0.00 | 92 | 1007.8 |
| 20260506040022 | 12 | 293 | 0.0 | 0.0 | 0.00 | 0.00 | 0.00 | 92 | 1007.8 |
| 20260506035021 | 12 | 270 | 0.0 | 0.0 | 0.00 | 0.00 | 0.00 | 91 | 1007.8 |
| 20260506034020 | 13 | 270 | 0.0 | 0.0 | 0.00 | 0.00 | 0.00 | 91 | 1007.8 |
| 20260506033019 | 12 | 270 | 0.0 | 0.0 | 0.00 | 0.00 | 0.00 | 91 | 1007.8 |
| 20260506032018 | 12 | 270 | 0.0 | 0.0 | 0.00 | 0.00 | 0.00 | 91 | 1007.8 |
| 20260506030946 | 12 | 270 | 0.0 | 0.0 | 0.00 | 0.00 | 0.00 | 91 | 1008.1 |
| 20260506025946 | 12 | 293 | 0.0 | 1.6 | 0.00 | 0.00 | 0.00 | 91 | 1008.1 |
| 20260506024944 | 12 | 270 | 1.6 | 1.6 | 0.00 | 0.00 | 0.00 | 91 | 1007.8 |
| 20260506023944 | 12 | 248 | 0.0 | 0.0 | 0.00 | 0.00 | 0.00 | 91 | 1007.8 |
| 20260506022912 | 12 | 23 | 0.0 | 0.0 | 0.00 | 0.00 | 0.00 | 91 | 1008.1 |
| 20260506021810 | 13 | 248 | 0.0 | 0.0 | 0.00 | 0.00 | 0.00 | 91 | 1008.5 |
| 20260506020809 | 13 | 270 | 0.0 | 0.0 | 0.00 | 0.00 | 0.00 | 91 | 1008.5 |
| 20260506015737 | 13 | 248 | 0.0 | 0.0 | 0.00 | 0.00 | 0.00 | 91 | 1008.5 |
| 20260506014737 | 13 | 248 | 0.0 | 0.0 | 0.00 | 0.00 | 0.00 | 91 | 1008.8 |
| 20260506013735 | 13 | 158 | 0.0 | 0.0 | 0.00 | 0.00 | 0.00 | 91 | 1009.1 |
| 20260506012735 | 13 | 158 | 0.0 | 0.0 | 0.00 | 0.00 | 0.00 | 91 | 1008.8 |
| 20260506011734 | 13 | 270 | 0.0 | 0.0 | 0.00 | 0.00 | 0.00 | 91 | 1008.8 |
| 20260506010733 | 13 | 293 | 0.0 | 0.0 | 0.00 | 0.00 | 0.00 | 91 | 1009.1 |
| 20260506005732 | 13 | 293 | 0.0 | 0.0 | 0.00 | 0.00 | 0.00 | 91 | 1009.1 |
| 20260506004731 | 13 | 293 | 0.0 | 0.0 | 0.00 | 0.00 | 0.00 | 90 | 1009.1 |
| 20260506003659 | 13 | 338 | 0.0 | 0.0 | 0.00 | 0.00 | 0.00 | 90 | 1009.5 |
| 20260506002658 | 13 | 135 | 0.0 | 0.0 | 0.00 | 0.00 | 0.00 | 90 | 1009.1 |
| 20260506001657 | 13 | 180 | 0.0 | 0.0 | 0.00 | 0.00 | 0.00 | 90 | 1009.5 |
| 20260506000656 | 13 | 158 | 0.0 | 1.6 | 0.00 | 0.00 | 0.00 | 90 | 1010.2 |
| 20260505235655 | 13 | 270 | 1.6 | 6.4 | 0.00 | 0.00 | 0.00 | 90 | 1010.5 |
| 20260505234654 | 13 | 270 | 6.4 | 6.4 | 0.00 | 0.00 | 0.00 | 90 | 1010.5 |
| 20260505233653 | 13 | 248 | 0.0 | 0.0 | 0.00 | 0.00 | 0.00 | 90 | 1010.2 |
| 20260505232448 | 13 | 225 | 0.0 | 0.0 | 0.00 | 0.00 | 0.00 | 89 | 1010.2 |
| 20260505231448 | 13 | 225 | 0.0 | 0.0 | 0.00 | 0.00 | 0.00 | 89 | 1010.2 |
| 20260505230447 | 13 | 225 | 0.0 | 0.0 | 0.00 | 0.00 | 0.00 | 89 | 1010.5 |
| 20260505225446 | 13 | 225 | 0.0 | 0.0 | 0.00 | 0.00 | 0.00 | 89 | 1010.2 |